Location: Wildlife_Club
(35.6000°N, 81.4330°W)
Time: 17:47:21
(UTC-05:00)

Amateur Radio Satellites - All Passes

Search period start: 27 February 2017 17:17
Search period end: 28 February 2017 17:17
Location: Wildlife_Club, 35.6000°N, 81.4330°W

Satellite Date Start Highest point End Downlink Frequencies (MHz)
Time Altitude Azimuth
CUBESAT XI-V 27 Feb 17:22:38 17:27:13 79° 284° (WNW) 17:31:48 437.345
NO-84 27 Feb 17:31:13 17:33:02 14° 329° (NNW) 17:34:56 435.350 FM
KAITUO 1B 27 Feb 17:31:25 17:34:50 33° 73° (ENE) 17:38:17 145.475/437.950
XW-2F 27 Feb 17:40:03 17:43:47 53° 76° (ENE) 17:47:32 145.980 - 146.000
CUTE-I 27 Feb 17:44:38 17:49:53 62° 73° (ENE) 17:55:10 437.470
XW-2D 27 Feb 17:46:11 17:49:59 69° 77° (ENE) 17:53:51 145.860 - 145.880
XW-2B 27 Feb 17:51:16 17:55:06 79° 77° (ENE) 17:58:58 145.730 - 145.750
XW-2C 27 Feb 18:00:01 18:03:52 78° 259° (WSW) 18:07:44 145.795 - 145.815
NUDT-PHONESAT 27 Feb 18:02:51 18:06:37 89° 264° (W) 18:10:24 437.300
CUTE 1.7 + AOD 2 27 Feb 18:07:33 18:09:12 12° 66° (ENE) 18:10:51 437.475
KKS-1 27 Feb 18:07:37 18:10:21 16° 294° (WNW) 18:13:04 437.445
M-CUBED/EXP-1 PRIME 27 Feb 18:08:58 18:12:53 77° 289° (WNW) 18:17:06 437.505
LilacSat-2 27 Feb 18:19:52 18:23:30 39° 262° (W) 18:27:11 437.200
HO-68 27 Feb 18:20:32 18:26:53 35° 65° (ENE) 18:33:13 435.675
STARS 27 Feb 18:34:16 18:37:16 18° 293° (WNW) 18:40:16 437.465
DOVE 4 27 Feb 18:34:25 18:37:58 28° 264° (W) 18:41:34 437.250
XW-2A 27 Feb 18:36:05 18:39:11 34° 74° (ENE) 18:42:19 145.665 - 145.685
STRAND 1 27 Feb 18:49:29 18:53:08 19° 94° (E) 18:56:45 437.568
CUBEBUG 2 27 Feb 18:50:53 18:53:52 18° 67° (ENE) 18:56:55 437.445
SEEDS 27 Feb 18:57:39 19:01:20 30° 72° (ENE) 19:05:01 437.485
RS-15 27 Feb 19:01:10 19:12:08 39° 315° (NW) 19:23:30 29.354- 29.394
KAITUO 1B 27 Feb 19:07:02 19:08:57 13° 267° (W) 19:10:51 145.475/437.950
UWE-3 27 Feb 19:22:06 19:25:41 24° 69° (ENE) 19:29:22 435.000/436.395/437.385
CUTE-I 27 Feb 19:27:39 19:30:18 14° 268° (W) 19:32:57 437.470
ZACube-1 27 Feb 19:37:31 19:40:51 21° 68° (ENE) 19:44:15 437.345
CUTE 1.7 + AOD 2 27 Feb 19:40:23 19:44:33 51° 261° (W) 19:48:43 437.475
HO-68 27 Feb 20:07:48 20:14:25 40° 261° (W) 20:21:04 435.675
AAUSAT CUBESAT 2 27 Feb 20:14:03 20:18:10 67° 259° (W) 20:22:18 437.432
AO-73 27 Feb 20:23:09 20:27:33 63° 75° (ENE) 20:32:03 145.935
CUBEBUG 2 27 Feb 20:26:01 20:30:07 37° 263° (W) 20:34:23 437.445
Oscar 11 27 Feb 20:26:43 20:30:59 59° 75° (ENE) 20:35:17 .
STRAND 1 27 Feb 20:27:36 20:32:27 42° 288° (WNW) 20:37:16 437.568
SEEDS 27 Feb 20:34:00 20:37:01 19° 266° (W) 20:40:01 437.485
SO-50 27 Feb 20:48:19 20:52:03 24° 111° (ESE) 20:55:46 436.795
JUGNU 27 Feb 20:50:54 20:54:10 15° 174° (S) 20:57:26 437.505
UWE-3 27 Feb 20:58:12 21:01:59 27° 265° (W) 21:05:52 435.000/436.395/437.385
YUBILEINY 27 Feb 21:11:40 21:20:07 51° 78° (ENE) 21:28:28 435.215
ZACube-1 27 Feb 21:12:56 21:16:53 31° 264° (W) 21:20:56 437.345
RS-15 27 Feb 21:23:00 21:29:46 16° 347° (NNW) 21:36:35 29.354- 29.394
DELFI C3 27 Feb 21:23:04 21:27:01 83° 76° (ENE) 21:30:58 145.870
O/OREOS (USA 219) 27 Feb 21:26:58 21:30:10 20° 101° (E) 21:33:24 437.305
TIGRISAT 27 Feb 21:35:43 21:38:49 17° 93° (E) 21:41:51 435.000
UNISAT 6 27 Feb 21:36:05 21:39:23 19° 94° (E) 21:42:39 437.425
FO-29 27 Feb 21:56:00 22:01:14 21° 90° (E) 22:06:05 435.910
SRMSAT 27 Feb 21:57:27 21:58:35 11° 166° (SSE) 21:59:43 437.500
PRISM 27 Feb 22:11:18 22:15:21 65° 284° (WNW) 22:19:24 437.425
SO-50 27 Feb 22:28:06 22:32:20 33° 306° (NW) 22:36:32 436.795
NO-84 27 Feb 22:28:40 22:31:12 16° 33° (NNE) 22:33:50 435.350 FM
JUGNU 27 Feb 22:38:56 22:42:24 16° 184° (S) 22:45:52 437.505
ESTCUBE 1 27 Feb 22:50:21 22:54:43 50° 74° (ENE) 22:59:05 437.505/2401.250
LO-87 27 Feb 22:50:54 22:54:24 68° 259° (W) 22:57:56 145.935 - 145.965
SPROUT 27 Feb 22:53:37 22:55:29 13° 66° (ENE) 22:57:21 437.525
VELOX 1 27 Feb 23:04:43 23:08:07 22° 69° (ENE) 23:11:30 145.980
O/OREOS (USA 219) 27 Feb 23:05:19 23:09:19 31° 296° (WNW) 23:13:21 437.305
YUBILEINY 27 Feb 23:09:13 23:16:25 30° 276° (W) 23:23:36 435.215
50 SAT 27 Feb 23:09:45 23:11:23 13° 68° (ENE) 23:12:59 437.505
TIGRISAT 27 Feb 23:11:15 23:15:37 39° 288° (WNW) 23:19:54 435.000
UNISAT 6 27 Feb 23:11:53 23:16:10 36° 288° (WNW) 23:20:22 437.425
DUCHIFAT 1 27 Feb 23:23:29 23:26:26 18° 95° (E) 23:29:22 145.980
EO-79 27 Feb 23:36:51 23:40:42 32° 98° (E) 23:44:31 145.935-145.965
FO-29 27 Feb 23:39:26 23:46:50 64° 288° (WNW) 23:53:25 435.910
RS-15 27 Feb 23:41:05 23:49:32 20° 25° (NNE) 23:57:49 29.354- 29.394
SRMSAT 27 Feb 23:43:22 23:46:58 16° 175° (S) 23:50:34 437.500
PCSat 27 Feb 23:44:47 23:47:16 13° 46° (NE) 23:49:44 145.827
AIST 2D 27 Feb 23:45:03 23:48:37 80° 101° (E) 23:52:08 435.315
NANOSAT C BR1 27 Feb 23:51:50 23:55:57 44° 99° (E) 00:00:00 145.865
POLYITAN 1 27 Feb 23:54:59 23:59:13 54° 100° (E) 00:03:23 437.675
QB50P2 27 Feb 23:58:03 00:02:19 64° 100° (E) 00:06:33 145.880/145.840
NO-84 28 Feb 00:05:08 00:09:18 83° 227° (SW) 00:13:41 435.350 FM
BUGSAT 1 28 Feb 00:08:55 00:12:05 20° 95° (E) 00:15:15 437.445
DX 1 28 Feb 00:22:03 00:26:20 75° 77° (ENE) 00:30:40 434.975-435.025
SPROUT 28 Feb 00:26:49 00:30:56 48° 261° (W) 00:35:04 437.525
UKube-1 28 Feb 00:28:28 00:32:42 62° 75° (ENE) 00:36:57 .
JUGNU 28 Feb 00:29:21 00:30:37 11° 194° (SSW) 00:31:52 437.505
ESTCUBE 1 28 Feb 00:29:51 00:31:45 12° 268° (W) 00:33:40 437.505/2401.250
Oscar 19 28 Feb 00:38:37 00:40:43 12° 92° (E) 00:42:50 437.125/150
VELOX 1 28 Feb 00:40:40 00:44:24 27° 263° (W) 00:48:08 145.980
50 SAT 28 Feb 00:41:06 00:44:11 29° 262° (W) 00:47:17 437.505
DUCHIFAT 1 28 Feb 00:58:21 01:02:07 31° 288° (WNW) 01:05:53 145.980
EO-79 28 Feb 01:13:13 01:16:12 19° 292° (WNW) 01:19:10 145.935-145.965
PCSat 28 Feb 01:25:56 01:31:23 90° 290° (WNW) 01:36:49 145.827
FO-29 28 Feb 01:28:53 01:30:10 10° 307° (NW) 01:31:26 435.910
NANOSAT C BR1 28 Feb 01:29:05 01:31:14 14° 294° (WNW) 01:33:23 145.865
SRMSAT 28 Feb 01:31:51 01:35:23 16° 186° (S) 01:38:56 437.500
POLYITAN 1 28 Feb 01:32:59 01:34:29 12° 295° (WNW) 01:35:59 437.675
ITUPSAT 1 28 Feb 01:39:20 01:43:10 24° 68° (ENE) 01:46:59 437.325
BEESAT 28 Feb 01:43:45 01:47:44 27° 69° (ENE) 01:51:45 436.000
BUGSAT 1 28 Feb 01:43:46 01:47:24 28° 289° (WNW) 01:51:03 437.445
Gurwin Techsat 1B 28 Feb 01:44:21 01:49:09 33° 97° (E) 01:53:54 435.225
RS-15 28 Feb 01:53:24 02:05:33 59° 54° (NE) 02:17:06 29.354- 29.394
Oscar 19 28 Feb 02:15:20 02:20:24 64° 286° (WNW) 02:25:28 437.125/150
AO-85 28 Feb 02:31:53 02:34:37 16° 110° (ESE) 02:37:17 145.980
AO-7 28 Feb 02:42:37 02:48:22 20° 94° (E) 02:54:04 .
ITAMSAT 1 28 Feb 02:55:57 03:00:22 27° 96° (E) 03:04:45 435.822/435.867
MOZHAYETS 4 28 Feb 03:15:04 03:19:42 89° 83° (E) 03:24:23
ITUPSAT 1 28 Feb 03:16:33 03:20:47 31° 262° (W) 03:25:04 437.325
BEESAT 28 Feb 03:21:22 03:25:24 27° 263° (W) 03:29:27 436.000
Gurwin Techsat 1B 28 Feb 03:24:32 03:28:55 27° 292° (WNW) 03:33:17 435.225
KKS-1 28 Feb 03:25:19 03:29:01 27° 70° (ENE) 03:32:43 437.445
STARS 28 Feb 03:51:17 03:54:40 22° 69° (ENE) 03:58:04 437.465
RS-15 28 Feb 04:06:42 04:17:26 39° 255° (WSW) 04:27:46 29.354- 29.394
AO-85 28 Feb 04:10:19 04:14:44 45° 302° (WNW) 04:18:51 145.980
CUBESAT XI-V 28 Feb 04:22:31 04:27:09 71° 76° (ENE) 04:31:47 437.345
AO-7 28 Feb 04:33:27 04:41:45 75° 290° (WNW) 04:49:58 .
ITAMSAT 1 28 Feb 04:35:11 04:39:46 31° 291° (WNW) 04:44:19 435.822/435.867
M-CUBED/EXP-1 PRIME 28 Feb 04:53:02 04:56:17 78° 72° (ENE) 04:59:33 437.505
KKS-1 28 Feb 05:01:59 05:05:30 23° 264° (W) 05:09:02 437.445
BEESAT 3 28 Feb 05:08:34 05:12:12 40° 115° (ESE) 05:15:55 437.485
SO-50 28 Feb 05:23:41 05:25:05 11° 44° (NE) 05:26:29 436.795
STARS 28 Feb 05:27:07 05:30:50 27° 263° (W) 05:34:36 437.465
XW-2C 28 Feb 05:37:13 05:39:05 13° 93° (E) 05:40:57 145.795 - 145.815
Tancredo 1 28 Feb 05:38:45 05:40:41 15° 128° (SE) 05:42:38 437.200
NUDT-PHONESAT 28 Feb 05:39:03 05:39:48 10° 92° (E) 05:40:31 437.300
BEESAT 2 28 Feb 05:53:28 05:57:16 53° 116° (ESE) 06:01:10 435.950
LilacSat-2 28 Feb 05:56:17 05:59:27 25° 96° (E) 06:02:36 437.200
STRAND 1 28 Feb 06:02:37 06:06:26 21° 66° (ENE) 06:10:15 437.568
CUTE-I 28 Feb 06:05:02 06:09:48 31° 97° (E) 06:14:31 437.470
AO-7 28 Feb 06:29:02 06:33:05 15° 309° (NW) 06:37:09 .
DOVE 4 28 Feb 06:34:11 06:39:04 86° 104° (ESE) 06:44:12 437.250
KAITUO 1B 28 Feb 06:39:06 06:42:51 73° 101° (E) 06:46:33 145.475/437.950
BEESAT 3 28 Feb 06:47:35 06:49:59 15° 311° (NW) 06:52:24 437.485
XW-2F 28 Feb 06:49:09 06:52:55 65° 284° (WNW) 06:56:37 145.980 - 146.000
ISS 28 Feb 06:55:38 06:58:54 70° 318° (NW) 07:02:12 437.550
XW-2D 28 Feb 06:55:49 06:59:31 49° 285° (WNW) 07:03:09 145.860 - 145.880
XW-2B 28 Feb 07:01:00 07:04:38 43° 286° (WNW) 07:08:13 145.730 - 145.750
SO-50 28 Feb 07:01:38 07:06:08 84° 242° (WSW) 07:10:36 436.795
XW-2C 28 Feb 07:09:56 07:13:23 33° 287° (WNW) 07:16:48 145.795 - 145.815
NUDT-PHONESAT 28 Feb 07:10:22 07:13:54 39° 286° (WNW) 07:17:23 437.300
Tancredo 1 28 Feb 07:13:35 07:16:41 41° 322° (NW) 07:19:47 437.200
CUTE 1.7 + AOD 2 28 Feb 07:28:20 07:32:07 32° 97° (E) 07:35:51 437.475
LilacSat-2 28 Feb 07:30:53 07:33:32 18° 290° (WNW) 07:36:11 437.200
XW-2A 28 Feb 07:33:13 07:36:39 58° 100° (E) 07:40:02 145.665 - 145.685
BEESAT 2 28 Feb 07:33:27 07:35:22 13° 312° (NW) 07:37:18 435.950
HO-68 28 Feb 07:38:07 07:45:00 48° 101° (E) 07:51:49 435.675
O/OREOS (USA 219) 28 Feb 07:38:55 07:42:42 25° 62° (ENE) 07:46:28 437.305
STRAND 1 28 Feb 07:40:28 07:45:16 40° 261° (W) 07:50:08 437.568
CUTE-I 28 Feb 07:45:08 07:49:42 29° 292° (WNW) 07:54:14 437.470
AAUSAT CUBESAT 2 28 Feb 07:59:40 08:02:53 22° 95° (E) 08:06:06 437.432
AO-73 28 Feb 08:15:35 08:18:14 15° 92° (E) 08:20:49 145.935
Oscar 11 28 Feb 08:18:33 08:20:41 13° 92° (E) 08:22:48 .
SEEDS 28 Feb 08:19:13 08:23:23 88° 93° (E) 08:27:32 437.485
CUBEBUG 2 28 Feb 08:19:16 08:23:58 57° 100° (E) 08:28:32 437.445
TIGRISAT 28 Feb 08:33:19 08:34:34 11° 64° (ENE) 08:35:49 435.000
UNISAT 6 28 Feb 08:33:26 08:35:14 12° 64° (ENE) 08:37:02 437.425
ISS 28 Feb 08:34:43 08:35:53 11° 336° (NNW) 08:37:03 437.550
UWE-3 28 Feb 08:49:53 08:54:33 78° 103° (ESE) 08:59:05 435.000/436.395/437.385
PRISM 28 Feb 08:57:19 09:01:18 56° 75° (ENE) 09:05:18 437.425
ZACube-1 28 Feb 09:03:38 09:08:08 63° 100° (E) 09:12:30 437.345
CUTE 1.7 + AOD 2 28 Feb 09:04:51 09:07:40 18° 292° (WNW) 09:10:29 437.475
DELFI C3 28 Feb 09:04:55 09:06:37 12° 93° (E) 09:08:18 145.870
O/OREOS (USA 219) 28 Feb 09:18:09 09:22:01 27° 257° (WSW) 09:25:52 437.305
HO-68 28 Feb 09:26:25 09:32:22 30° 296° (WNW) 09:38:18 435.675
AAUSAT CUBESAT 2 28 Feb 09:34:57 09:38:15 24° 289° (WNW) 09:41:32 437.432
FO-29 28 Feb 09:46:18 09:53:05 47° 69° (ENE) 10:00:25 435.910
AO-73 28 Feb 09:50:23 09:54:37 40° 287° (WNW) 09:58:44 145.935
Oscar 11 28 Feb 09:52:54 09:56:59 42° 287° (WNW) 10:01:02 .
CUBEBUG 2 28 Feb 09:57:46 10:00:00 13° 295° (WNW) 10:02:14 437.445
TIGRISAT 28 Feb 10:06:08 10:10:35 65° 259° (W) 10:15:12 435.000
UNISAT 6 28 Feb 10:06:54 10:11:20 59° 259° (W) 10:15:55 437.425
YUBILEINY 28 Feb 10:08:14 10:16:54 65° 92° (E) 10:25:34 435.215
AIST 2D 28 Feb 10:17:27 10:19:53 18° 70° (ENE) 10:22:20 435.315
LO-87 28 Feb 10:22:51 10:24:01 11° 93° (E) 10:25:10 145.935 - 145.965
EO-79 28 Feb 10:27:12 10:29:57 17° 67° (ENE) 10:32:41 145.935-145.965
DELFI C3 28 Feb 10:37:54 10:41:33 37° 286° (WNW) 10:45:10 145.870
NANOSAT C BR1 28 Feb 10:41:25 10:44:42 22° 70° (ENE) 10:48:01 145.865
ZACube-1 28 Feb 10:42:33 10:43:47 11° 296° (WNW) 10:45:00 437.345
POLYITAN 1 28 Feb 10:44:49 10:48:23 27° 71° (ENE) 10:52:00 437.675
ESTCUBE 1 28 Feb 10:47:27 10:49:35 13° 93° (E) 10:51:43 437.505/2401.250
QB50P2 28 Feb 10:47:44 10:51:30 31° 71° (ENE) 10:55:16 145.880/145.840
FO-29 28 Feb 11:31:55 11:38:10 32° 266° (W) 11:44:55 435.910
DUCHIFAT 1 28 Feb 11:46:20 11:50:30 65° 259° (W) 11:54:42 145.980
AIST 2D 28 Feb 11:50:08 11:52:56 22° 265° (W) 11:55:45 435.315
Oscar 19 28 Feb 11:52:35 11:55:25 15° 64° (ENE) 11:58:14 437.125/150
LO-87 28 Feb 11:54:16 11:57:34 34° 286° (WNW) 12:00:52 145.935 - 145.965
EO-79 28 Feb 12:01:33 12:05:23 34° 262° (W) 12:09:17 145.935-145.965
YUBILEINY 28 Feb 12:07:31 12:14:17 24° 290° (WNW) 12:21:06 435.215
50 SAT 28 Feb 12:08:56 12:11:31 19° 96° (E) 12:14:05 437.505
DX 1 28 Feb 12:14:18 12:17:02 16° 94° (E) 12:19:44 434.975-435.025
SPROUT 28 Feb 12:15:28 12:19:24 33° 98° (E) 12:23:18 437.525
NANOSAT C BR1 28 Feb 12:16:47 12:20:16 25° 264° (W) 12:23:47 145.865
UKube-1 28 Feb 12:20:14 12:22:09 13° 93° (E) 12:24:04 .
POLYITAN 1 28 Feb 12:20:54 12:24:07 21° 265° (W) 12:27:22 437.675
ESTCUBE 1 28 Feb 12:22:19 12:26:36 47° 286° (WNW) 12:30:52 437.505/2401.250
QB50P2 28 Feb 12:24:25 12:27:18 18° 266° (W) 12:30:13 145.880/145.840
BUGSAT 1 28 Feb 12:29:40 12:33:40 60° 259° (W) 12:37:45 437.445
VELOX 1 28 Feb 12:32:39 12:37:03 68° 102° (ESE) 12:41:27 145.980
AO-85 28 Feb 12:44:08 12:47:59 58° 59° (ENE) 12:51:56 145.980
Gurwin Techsat 1B 28 Feb 13:02:27 13:07:22 40° 71° (ENE) 13:12:19 435.225
ISS 28 Feb 13:25:56 13:28:59 34° 36° (NE) 13:31:59 437.550
Oscar 19 28 Feb 13:29:07 13:34:12 59° 259° (W) 13:39:16 437.125/150
BEESAT 3 28 Feb 13:29:43 13:31:10 12° 47° (NE) 13:32:37 437.485
AO-7 28 Feb 13:38:47 13:45:02 24° 57° (ENE) 13:51:17 .
50 SAT 28 Feb 13:42:02 13:44:29 18° 290° (WNW) 13:46:56 437.505
Tancredo 1 28 Feb 13:42:47 13:45:57 53° 39° (NE) 13:49:05 437.200
DX 1 28 Feb 13:49:17 13:53:17 37° 288° (WNW) 13:57:18 434.975-435.025
SPROUT 28 Feb 13:52:07 13:55:01 18° 292° (WNW) 13:57:55 437.525
UKube-1 28 Feb 13:54:14 13:58:23 46° 287° (WNW) 14:02:30 .
ITAMSAT 1 28 Feb 14:10:59 14:15:32 32° 69° (ENE) 14:20:06 435.822/435.867
BEESAT 2 28 Feb 14:14:59 14:17:16 14° 48° (NE) 14:19:33 435.950
PCSat 28 Feb 14:23:21 14:26:51 18° 105° (ESE) 14:30:22 145.827
Gurwin Techsat 1B 28 Feb 14:43:24 14:47:24 22° 265° (W) 14:51:26 435.225
ISS 28 Feb 15:02:51 15:05:15 19° 231° (SW) 15:07:38 437.550
BEESAT 3 28 Feb 15:05:11 15:09:10 63° 243° (WSW) 15:13:06 437.485
MOZHAYETS 4 28 Feb 15:13:37 15:17:25 25° 96° (E) 15:21:12
ITUPSAT 1 28 Feb 15:19:14 15:24:04 84° 106° (ESE) 15:28:50 437.325
Tancredo 1 28 Feb 15:20:47 15:21:50 11° 233° (SW) 15:22:52 437.200
NO-84 28 Feb 15:21:56 15:24:46 39° 127° (SE) 15:27:50 435.350 FM
BEESAT 28 Feb 15:23:25 15:28:13 85° 286° (WNW) 15:32:59 436.000
AO-7 28 Feb 15:28:40 15:37:01 72° 255° (WSW) 15:45:23 .
ITAMSAT 1 28 Feb 15:50:35 15:54:56 27° 264° (W) 15:59:20 435.822/435.867
BEESAT 2 28 Feb 15:51:24 15:55:18 48° 245° (WSW) 15:59:10 435.950
PCSat 28 Feb 16:04:29 16:09:45 53° 300° (WNW) 16:15:04 145.827
RS-15 28 Feb 16:12:04 16:23:09 49° 108° (ESE) 16:34:39 29.354- 29.394
CUBESAT XI-V 28 Feb 16:22:44 16:26:15 21° 95° (E) 16:29:45 437.345
MOZHAYETS 4 28 Feb 16:50:41 16:54:28 26° 290° (WNW) 16:58:14
KKS-1 28 Feb 16:54:33 16:59:04 82° 104° (ESE) 17:03:32 437.445
NO-84 28 Feb 17:00:31 17:02:36 16° 327° (NNW) 17:04:47 435.350 FM
